Temp
10 9 10 10 10 10 9 9 10 10 10 10 10 10 9 9 9 8 8 9 9 9 9 9 9 9 9 9 9 9 9 9 9 9 9 9 9 9 9 9 9 9 9
9 9 9 9 10 9 10 9 9 9 10 10 10 10 9 9 8 8 8 9 9 9 9 9 9 9 9 9 9 9 9 9 9 9 9 9 9 9 9 9 9 9 9
8 8 8 8 9 9 9 10 9 9 9 9 9 9 9 9 8 8 8 9 9 9 9 9 9 9 9 9 9 9 9 9 9 9 9 9 9 9 9 9 9 9 10
7 8 8 8 8 8 8 9 9 9 9 9 9 9 8 8 8 8 7 7 9 9 9 9 9 9 9 9 9 9 9 9 9 10 9 9 8 8 8 9 10 10 9
6 7 7 8 7 7 7 8 9 9 8 8 8 8 8 8 7 7 6 6 8 9 9 9 9 9 9 9 9 9 10 10 10 9 9 10 8 8 9 9 9 9 9
6 6 8 8 8 7 7 7 8 8 8 8 8 8 8 7 7 7 6 5 8 9 9 9 9 9 9 9 9 10 10 10 10 9 9 10 10 10 9 9 9 9 10
7 6 7 8 8 7 7 7 8 7 8 7 8 7 7 6 7 6 6 6 8 8 8 9 9 9 9 9 9 10 10 10 10 10 10 10 10 10 10 10 9 10 10
7 6 6 7 7 7 7 7 7 7 7 7 7 7 7 6 6 6 7 7 8 8 8 8 9 9 9 9 9 9 9 10 10 11 11 10 10 10 9 9 10 10 9
6 6 6 7 7 6 6 6 6 6 7 7 7 7 7 6 6 6 7 8 8 8 8 8 8 9 9 9 9 9 10 10 10 10 10 10 10 10 10 10 10 9 9
6 6 6 6 7 7 6 6 6 6 6 6 7 7 6 6 6 6 6 8 8 8 8 8 8 8 8 9 9 10 10 10 10 10 10 10 10 10 9 10 9 9 9
5 6 6 6 6 7 6 6 6 6 5 6 6 6 6 6 6 7 6 7 8 8 8 8 8 8 8 9 9 10 10 10 9 10 10 10 10 9 9 9 9 9 9
5 5 6 5 6 6 6 6 5 6 5 5 6 6 6 6 6 7 7 7 8 8 8 9 8 8 8 9 9 9 10 10 10 10 10 10 9 9 9 9 9 9 9
4 5 5 5 5 5 6 5 5 5 5 5 5 5 6 5 6 7 7 7 7 8 8 8 9 8 8 9 9 9 10 10 10 9 9 9 9 9 9 9 9 9 8
4 4 3 4 4 4 5 4 5 4 4 4 5 5 6 5 6 7 7 7 7 8 8 8 8 8 8 8 9 9 10 10 9 9 9 9 9 9 9 9 8 8 8
3 3 3 2 2 3 4 3 4 4 4 5 6 5 5 5 6 6 7 7 7 8 8 8 8 8 8 8 9 10 9 9 9 9 8 8 9 8 8 8 8 8 8
3 3 2 2 1 2 3 3 3 2 4 5 5 5 5 5 6 6 6 7 7 7 7 7 8 8 8 8 9 9 9 8 9 8 8 8 8 8 8 8 7 7 7
2 2 1 1 1 2 2 2 2 3 2 4 5 5 4 5 5 5 6 6 7 7 7 7 7 8 8 8 8 9 9 8 8 8 8 8 8 7 7 7 7 7 7
0 1 0 0 0 1 1 1 2 2 2 2 3 4 4 4 4 5 6 6 6 7 7 7 7 8 7 8 8 8 8 7 8 8 8 8 7 7 7 7 7 7 7
-0 0 -0 -0 -0 1 1 2 1 2 2 3 1 3 4 5 4 4 5 5 6 6 7 7 7 7 7 7 7 7 8 7 7 7 7 7 7 7 7 6 6 6 6
-0 -0 -1 -1 -1 -0 0 1 1 2 2 2 -0 1 4 4 3 3 4 5 5 6 6 7 6 6 7 7 7 6 7 7 6 6 6 6 6 6 6 6 6 5 5
-1 -1 -1 -1 -1 -1 -1 0 1 2 2 3 1 1 3 3 4 3 4 5 5 5 6 6 6 6 6 6 6 6 6 6 6 6 6 6 6 6 6 5 5 5 5
-1 -1 -1 -2 -1 -2 -1 -1 0 2 3 0 2 -1 3 2 3 3 3 4 5 5 5 5 6 6 6 6 6 6 6 6 6 6 6 6 5 5 5 5 5 4 4
-2 -2 -2 -2 -2 -2 -2 -2 -2 -1 -2 -0 1 -1 -1 2 3 3 3 4 4 5 5 5 5 5 6 6 5 5 6 6 6 5 5 5 5 5 4 4 4 3 3
-1 -2 -2 -2 -2 -2 -2 -2 -2 -1 -1 -2 -1 -1 -0 1 1 2 3 4 4 4 4 4 5 5 5 4 5 5 5 5 5 5 5 5 4 4 4 4 3 2 2
-1 -2 -2 -2 -2 -2 -1 -2 -1 -1 -1 -0 0 1 0 -0 0 -0 3 3 3 3 3 4 4 4 4 4 4 4 4 4 4 4 4 4 4 4 3 3 3 2 2
-1 -1 -2 -2 -1 -2 -2 -2 -1 -1 -0 -0 1 4 -0 -1 0 1 1 2 2 2 3 3 3 3 3 3 3 3 3 3 3 3 3 3 3 3 3 2 2 2 1
Height
3139 3141 3141 3142 3143 3143 3144 3145 3146 3147 3148 3149 3150 3151 3152 3154 3156 3158 3158 3159 3160 3161 3162 3163 3164 3165 3165 3165 3166 3166 3166 3167 3168 3169 3170 3171 3172 3172 3173 3173 3173 3174 3174
3137 3139 3140 3141 3142 3142 3143 3144 3144 3146 3147 3148 3149 3150 3151 3153 3155 3157 3158 3159 3160 3161 3162 3163 3163 3164 3165 3165 3166 3166 3167 3167 3169 3169 3170 3172 3172 3172 3173 3174 3174 3174 3175
3134 3137 3138 3139 3140 3141 3142 3142 3143 3145 3146 3148 3148 3150 3151 3152 3153 3155 3157 3157 3159 3160 3161 3162 3163 3164 3165 3165 3166 3167 3167 3168 3169 3170 3171 3172 3173 3174 3175 3175 3175 3175 3176
3132 3134 3136 3137 3138 3138 3140 3140 3142 3143 3144 3146 3147 3148 3150 3151 3152 3154 3155 3156 3157 3159 3160 3161 3162 3163 3164 3165 3166 3167 3168 3169 3169 3170 3171 3172 3173 3175 3175 3176 3176 3176 3177
3131 3131 3132 3135 3136 3137 3137 3138 3139 3141 3142 3144 3145 3147 3148 3149 3151 3153 3155 3156 3156 3159 3160 3161 3161 3163 3164 3165 3166 3167 3168 3169 3171 3172 3172 3173 3173 3174 3175 3176 3177 3177 3177
3128 3127 3128 3130 3132 3134 3135 3135 3137 3138 3140 3141 3143 3144 3145 3147 3149 3150 3152 3154 3154 3157 3159 3160 3161 3162 3163 3165 3166 3166 3168 3170 3171 3172 3173 3173 3174 3174 3175 3176 3177 3177 3178
3123 3123 3122 3125 3126 3128 3131 3132 3133 3135 3137 3139 3141 3142 3144 3145 3146 3147 3149 3151 3153 3155 3157 3158 3160 3162 3163 3164 3164 3166 3168 3169 3171 3173 3173 3173 3174 3175 3176 3177 3178 3178 3179
3117 3117 3116 3120 3121 3124 3126 3128 3129 3132 3134 3136 3138 3140 3142 3144 3143 3145 3146 3148 3150 3153 3155 3157 3158 3160 3163 3163 3164 3165 3167 3169 3170 3172 3173 3174 3176 3176 3177 3178 3178 3179 3179
3111 3112 3111 3113 3116 3117 3120 3123 3125 3127 3130 3132 3135 3137 3138 3140 3141 3142 3143 3146 3148 3151 3153 3155 3157 3159 3161 3162 3163 3164 3165 3168 3170 3172 3172 3174 3176 3177 3178 3178 3179 3179 3180
3105 3107 3106 3107 3110 3112 3114 3117 3120 3122 3125 3128 3131 3132 3134 3136 3138 3139 3141 3143 3146 3148 3151 3153 3155 3157 3159 3160 3161 3164 3166 3168 3169 3171 3172 3174 3176 3177 3178 3179 3180 3180 3181
3099 3101 3101 3101 3103 3104 3107 3111 3113 3116 3119 3123 3125 3127 3129 3131 3134 3137 3138 3140 3143 3146 3148 3151 3153 3155 3157 3158 3161 3163 3165 3166 3168 3171 3172 3174 3176 3177 3178 3179 3180 3181 3182
3092 3094 3095 3094 3095 3096 3099 3103 3107 3111 3112 3115 3119 3121 3124 3128 3129 3132 3135 3137 3140 3143 3145 3147 3150 3152 3154 3156 3160 3162 3164 3166 3167 3170 3173 3174 3176 3177 3178 3179 3180 3181 3182
3083 3082 3087 3086 3086 3088 3090 3095 3099 3103 3106 3108 3112 3115 3119 3122 3124 3127 3131 3133 3135 3138 3141 3144 3147 3150 3152 3154 3158 3160 3162 3165 3168 3170 3172 3174 3176 3177 3177 3179 3179 3180 3181
3075 3074 3076 3077 3077 3079 3081 3084 3088 3095 3099 3103 3106 3109 3112 3115 3119 3122 3126 3130 3132 3136 3139 3141 3144 3147 3149 3151 3154 3158 3161 3164 3167 3169 3171 3173 3175 3176 3177 3178 3179 3179 3179
3066 3065 3067 3067 3068 3070 3072 3075 3079 3084 3087 3091 3097 3101 3104 3108 3113 3118 3121 3125 3128 3132 3135 3138 3141 3144 3146 3149 3151 3156 3160 3163 3165 3167 3169 3171 3174 3175 3176 3177 3177 3178 3178
3059 3057 3057 3059 3059 3061 3064 3067 3070 3074 3077 3078 3084 3085 3093 3100 3107 3112 3115 3119 3123 3127 3131 3134 3138 3141 3144 3146 3149 3154 3159 3161 3163 3165 3168 3170 3172 3174 3175 3175 3175 3175 3176
3052 3050 3050 3051 3051 3053 3055 3058 3062 3066 3070 3067 3072 3075 3079 3090 3100 3106 3110 3112 3118 3123 3127 3130 3133 3137 3140 3143 3145 3152 3156 3158 3161 3163 3165 3168 3171 3172 3173 3174 3174 3174 3174
3043 3043 3043 3043 3043 3044 3046 3049 3053 3055 3056 3058 3056 3051 3064 3080 3092 3099 3103 3106 3112 3118 3122 3125 3129 3133 3136 3140 3143 3148 3152 3155 3157 3160 3162 3165 3167 3169 3171 3172 3172 3173 3173
3039 3037 3036 3036 3035 3035 3037 3040 3042 3044 3048 3050 3050 3052 3058 3074 3085 3093 3097 3100 3105 3112 3116 3122 3126 3129 3133 3137 3140 3144 3149 3152 3154 3157 3159 3162 3164 3166 3167 3169 3169 3170 3170
3033 3031 3029 3028 3027 3027 3027 3029 3032 3034 3037 3040 3043 3046 3049 3066 3077 3085 3090 3093 3099 3106 3111 3117 3121 3125 3129 3134 3138 3140 3144 3148 3151 3154 3157 3159 3161 3162 3164 3165 3166 3166 3166
3027 3025 3023 3021 3021 3020 3020 3020 3021 3023 3025 3027 3041 3038 3040 3059 3068 3076 3080 3087 3094 3101 3107 3111 3116 3120 3124 3129 3133 3136 3139 3143 3147 3151 3153 3156 3157 3159 3161 3161 3162 3162 3163
3022 3022 3018 3016 3015 3015 3014 3012 3012 3013 3016 3021 3036 3034 3037 3050 3057 3067 3073 3081 3088 3095 3100 3105 3110 3115 3120 3125 3128 3132 3135 3140 3142 3146 3149 3152 3153 3155 3156 3157 3158 3159 3160
3018 3015 3013 3009 3010 3011 3011 3009 3008 3007 3013 3014 3021 3029 3037 3042 3048 3061 3068 3076 3082 3090 3096 3101 3105 3110 3115 3119 3124 3128 3131 3134 3138 3141 3144 3146 3149 3151 3151 3153 3154 3155 3155
3015 3010 3006 3004 3002 3002 3001 3005 3006 3007 3009 3013 3024 3033 3032 3036 3042 3054 3062 3070 3077 3084 3091 3096 3101 3106 3111 3115 3119 3123 3126 3131 3133 3137 3139 3141 3143 3145 3147 3149 3150 3151 3151
3010 3006 3002 2996 2993 2997 2998 2997 3002 3005 3006 3013 3019 3020 3025 3031 3037 3047 3057 3063 3071 3078 3085 3090 3096 3100 3105 3110 3115 3119 3122 3126 3129 3132 3134 3137 3138 3140 3142 3143 3144 3145 3147
3007 3004 3000 2994 2992 2991 2991 2993 2998 3000 3004 3005 3007 3014 3018 3026 3031 3041 3050 3058 3065 3073 3080 3085 3090 3094 3100 3105 3109 3113 3117 3120 3124 3126 3129 3131 3133 3134 3135 3137 3139 3141 3141
Wind_Speed
9 6 8 5 3 4 5 5 5 8 9 10 12 15 16 16 15 14 13 11 10 9 11 11 10 8 7 7 8 8 9 10 10 10 11 11 11 11 11 12 11 10 11
13 8 7 7 9 8 8 7 7 9 10 11 12 13 15 16 16 15 14 12 11 11 13 12 10 8 7 7 8 9 10 11 11 12 13 13 12 11 10 10 10 10 10
14 13 9 7 8 10 11 10 10 10 11 12 13 13 15 15 16 15 14 14 13 15 14 12 10 9 9 8 9 10 11 13 14 16 15 13 11 11 10 11 12 13 13
17 18 14 8 3 9 13 14 13 13 13 13 14 14 15 15 15 14 12 12 16 16 14 12 10 9 9 10 11 12 13 14 15 16 15 15 12 13 14 14 14 13 12
20 19 20 14 9 5 12 16 16 15 16 15 15 15 15 16 15 16 15 15 17 15 13 12 11 10 11 12 12 13 14 14 13 14 15 14 14 15 13 12 10 10 10
27 29 28 24 22 15 11 17 19 18 17 18 17 16 15 17 18 17 18 20 17 15 13 12 12 12 14 15 14 14 13 13 13 14 15 13 11 11 11 10 9 8 9
25 27 29 33 30 23 18 14 21 21 19 19 18 16 12 16 19 23 23 23 17 14 13 12 12 12 14 15 15 14 12 12 12 13 13 12 10 10 10 9 9 8 8
21 26 29 28 33 29 23 20 19 23 22 21 18 17 19 20 25 23 24 25 19 15 14 13 13 14 15 15 15 13 13 12 11 12 12 12 11 10 9 9 9 9 8
18 21 27 29 30 29 30 24 22 25 26 22 21 22 23 26 27 22 25 25 21 17 15 14 15 17 17 16 16 15 15 12 10 12 15 14 12 11 10 9 8 9 8
19 20 24 29 31 31 27 30 25 27 29 26 25 28 28 30 26 24 27 25 22 19 17 16 16 18 18 17 17 15 13 13 13 15 14 13 13 11 10 9 8 7 6
24 24 25 29 31 35 33 30 30 30 31 32 32 33 34 31 28 28 29 26 23 21 19 18 18 19 19 19 17 16 15 15 15 15 15 14 12 11 10 9 7 6 5
27 25 26 32 34 36 36 32 32 33 36 36 37 37 37 33 28 30 32 29 26 23 22 20 20 22 21 21 18 18 17 18 17 15 14 13 12 11 10 8 6 5 4
30 31 26 33 36 36 39 34 35 32 40 39 40 40 38 36 33 32 33 31 29 27 24 23 23 23 23 22 20 21 20 19 17 15 14 13 12 11 10 8 7 5 4
33 32 27 30 36 38 38 37 37 38 39 43 43 43 42 40 36 33 33 32 31 28 26 24 24 25 25 24 24 22 20 18 16 16 15 14 13 11 9 8 6 5 3
35 34 28 30 33 39 40 37 39 40 48 48 47 47 45 44 38 36 34 34 33 30 28 26 27 26 26 26 25 23 20 17 18 16 15 14 12 11 10 8 7 5 3
33 33 28 27 30 36 40 40 38 40 46 57 51 49 51 47 42 37 36 35 35 32 30 28 28 27 26 25 25 22 19 18 19 17 16 15 13 12 11 10 8 6 5
32 29 25 25 27 33 37 40 41 47 50 51 49 59 60 50 44 38 36 36 35 33 31 31 30 29 27 27 26 23 21 21 21 19 17 16 15 14 12 10 8 7 6
30 26 24 24 26 31 34 37 43 49 54 46 49 55 56 50 45 38 38 36 36 34 33 33 31 30 30 28 26 24 22 22 22 21 19 18 17 15 13 10 9 8 7
24 24 24 26 25 27 31 33 42 47 54 58 33 44 62 54 48 39 36 35 36 35 35 32 30 31 30 29 27 25 24 23 23 22 21 20 18 16 14 13 11 9 8
24 24 24 25 26 26 28 31 33 42 40 44 63 44 54 55 47 40 37 35 35 35 33 32 31 31 30 27 26 26 25 24 24 23 22 21 19 18 16 15 13 12 11
20 21 20 24 26 26 26 30 31 36 34 40 49 39 51 51 45 39 36 34 34 33 32 32 31 31 30 29 28 28 28 27 26 24 23 21 20 19 17 16 15 14 13
21 19 23 25 25 24 24 21 28 34 38 44 57 13 35 50 45 40 35 32 32 32 33 33 31 31 31 30 30 30 29 28 27 26 25 24 22 20 19 18 17 16 14
19 22 25 21 21 24 13 13 10 15 33 30 61 42 26 44 43 43 38 34 33 33 32 31 32 32 31 31 31 30 30 30 27 27 26 24 23 22 21 20 19 17 14
16 20 20 19 26 27 33 25 21 15 16 15 44 50 41 53 43 54 41 37 35 33 34 32 31 31 30 29 31 31 31 29 29 27 27 26 25 24 23 21 20 18 17
14 18 22 23 13 27 28 28 20 19 17 10 9 32 40 49 48 40 41 38 35 35 34 34 32 32 30 31 30 30 30 29 28 27 26 26 25 24 24 23 23 21 18
15 15 18 24 12 5 26 23 21 15 16 14 9 22 36 41 47 47 43 37 36 35 34 33 32 32 32 32 32 31 30 29 28 29 28 27 26 27 28 25 23 20 20
Wind_Direction
245 282 292 274 233 248 242 244 221 197 196 192 189 189 191 195 198 205 203 199 197 196 180 175 173 170 167 164 161 160 159 150 142 140 131 124 121 121 118 117 121 120 119
252 269 285 290 260 240 238 237 230 209 205 198 194 192 191 197 197 209 209 202 203 197 180 182 177 174 169 170 164 163 160 150 145 139 134 132 131 126 125 127 127 124 121
252 249 260 279 265 243 232 231 233 223 215 208 200 201 202 201 203 205 213 211 204 191 183 184 181 178 175 169 165 161 156 151 151 145 141 132 126 129 125 122 122 115 106
260 252 242 246 270 250 237 231 229 230 222 217 211 206 210 208 207 209 216 213 191 188 183 187 186 186 175 171 168 164 157 155 156 145 142 136 130 130 127 117 107 105 104
259 259 250 239 259 281 250 236 230 229 230 223 220 214 211 212 205 200 196 185 180 189 190 189 192 188 177 173 173 170 169 161 152 151 150 147 129 123 114 109 107 101 99
257 266 257 252 255 262 266 243 232 230 230 232 225 224 220 221 202 205 198 190 187 189 197 196 195 188 178 175 178 182 173 168 159 160 159 154 143 125 126 122 113 107 91
252 256 259 255 257 255 251 257 236 230 227 232 234 228 219 204 201 193 200 199 198 196 199 199 198 190 182 182 185 187 180 183 173 170 160 149 152 144 137 129 119 109 101
257 254 256 249 251 246 247 249 243 229 227 227 233 218 204 207 209 212 208 201 198 200 204 202 198 189 187 189 188 185 182 183 173 170 156 152 153 145 138 130 126 116 109
269 256 258 253 252 249 246 250 244 228 224 224 220 212 210 211 219 216 207 200 199 199 205 207 199 190 189 194 191 189 185 173 165 161 156 157 156 148 144 136 135 126 120
281 260 259 257 248 249 245 240 241 226 223 220 219 218 216 216 226 216 207 203 202 201 203 207 203 192 193 197 200 194 180 170 167 170 166 162 159 155 148 146 141 130 125
280 275 258 260 254 249 244 239 238 225 220 219 219 222 222 224 226 218 212 208 206 204 202 207 201 197 196 203 202 196 186 174 173 178 172 165 167 158 156 154 145 137 112
292 278 268 259 254 250 247 238 231 231 220 218 220 224 226 228 231 220 216 212 210 205 203 202 202 198 199 207 203 200 192 185 179 179 179 174 175 172 167 162 151 144 124
295 290 275 256 254 249 247 238 229 231 225 222 220 225 227 229 233 219 218 216 212 206 204 202 202 200 201 208 206 204 196 191 182 180 184 184 185 183 178 169 166 158 136
295 291 285 269 255 250 244 237 229 226 231 222 224 227 227 229 232 219 217 218 216 209 207 203 203 202 202 206 209 207 201 192 190 189 190 190 194 189 187 182 178 175 162
296 293 285 269 259 250 244 237 227 220 229 223 232 228 230 228 228 222 217 218 218 211 209 203 205 204 205 209 212 206 204 192 196 197 197 197 200 201 198 190 194 187 179
295 292 286 267 262 250 245 235 229 228 219 216 217 218 231 227 225 221 216 217 218 213 210 207 207 206 208 212 215 208 201 194 200 199 203 206 204 206 208 203 198 197 199
297 287 279 268 260 249 244 240 231 227 227 211 210 211 225 223 222 220 216 215 217 215 212 211 208 207 209 211 216 210 204 200 205 204 205 208 213 214 213 213 216 218 221
297 290 278 269 262 254 250 244 239 232 234 233 217 225 216 220 220 218 216 213 216 215 214 212 212 209 208 211 215 215 208 207 210 209 207 211 213 217 219 222 228 236 244
288 286 278 267 258 255 253 252 243 243 242 249 248 210 217 216 217 215 217 214 216 214 216 215 213 214 213 212 212 217 214 211 215 214 215 215 216 217 220 223 229 232 242
295 286 273 268 262 260 257 254 250 246 250 252 237 210 197 209 215 212 215 214 218 216 215 214 215 216 217 215 214 217 218 214 215 219 218 219 219 219 221 225 228 231 236
294 289 279 266 262 262 260 253 247 244 245 249 226 206 190 208 206 213 211 214 217 215 214 213 214 216 217 215 214 216 218 219 218 217 223 224 224 225 227 231 234 237 243
296 288 300 267 259 248 256 261 250 239 231 217 225 189 211 205 204 210 213 213 216 217 214 212 213 216 215 216 219 217 221 222 224 224 223 225 225 230 231 233 238 243 250
294 288 306 257 248 236 190 193 152 211 210 222 220 250 259 206 200 205 207 210 214 217 217 217 215 215 217 218 217 221 223 225 227 227 227 229 230 229 233 236 241 246 253
299 289 301 261 258 224 204 213 189 164 144 189 217 239 269 220 211 209 203 204 211 216 216 215 217 217 217 218 222 222 223 226 231 231 231 230 232 234 237 241 243 243 258
310 302 305 315 246 226 245 254 226 205 179 171 303 260 249 220 201 202 198 202 206 213 216 214 213 215 215 217 219 226 228 229 230 230 233 234 233 237 240 241 242 251 266
318 305 306 335 288 305 233 242 214 222 215 176 247 268 217 217 200 215 202 202 205 211 215 214 212 212 215 216 217 220 223 227 231 233 234 234 233 234 238 240 246 262 278